Wetbulb
66.80 67.81 63.26 59.46 51.89 51.12 48.11 54.11 58.73 58.66 59.05 62.68 63.66 61.57 60.13 63.11 59.73 53.11 68.63 71.56 72.23 72.16 73.03 73.26 74.45 73.97 73.32 73.68 74.78 74.66 74.33 73.68 72.48 71.38 71.00 70.87 70.64 70.66 70.38 69.89 69.53 69.69 69.61 69.32 69.10 68.97 69.05 69.13 68.81
63.49 64.40 58.77 53.64 46.27 42.95 46.80 55.67 57.54 58.93 63.05 64.16 64.32 62.72 60.94 61.63 66.89 67.09 68.84 71.94 72.25 72.42 71.81 72.22 74.32 73.76 73.35 74.38 75.18 74.43 73.54 72.05 71.00 70.70 70.52 70.29 70.47 69.85 69.38 69.02 69.15 69.26 68.81 68.49 68.14 68.00 67.89 67.90 67.87
63.25 60.98 55.59 49.07 43.51 42.81 46.76 57.59 57.96 60.88 63.66 63.61 62.92 65.53 63.06 62.79 67.54 68.10 70.59 71.62 72.12 71.27 71.59 72.26 74.00 73.61 74.07 75.33 74.46 73.51 71.83 70.84 70.61 70.32 70.11 70.18 69.58 69.08 68.55 68.75 68.83 68.44 67.95 67.49 67.17 67.04 67.07 67.73 69.46
58.44 56.52 52.01 46.36 42.91 47.00 54.66 58.66 59.01 57.95 61.16 62.26 64.20 61.88 66.23 69.68 68.63 70.27 71.46 71.26 70.69 70.64 70.80 73.91 73.83 73.83 74.28 75.01 73.81 72.21 71.15 70.74 70.42 70.27 70.07 69.62 69.04 68.49 68.72 68.48 68.00 67.71 67.52 67.71 67.39 67.49 68.60 69.07 70.28
52.94 49.31 43.96 41.85 43.49 47.28 53.19 61.26 60.02 60.46 60.02 60.07 64.28 62.10 63.40 69.33 71.00 70.97 70.16 70.38 69.63 69.57 71.10 71.81 73.68 73.75 74.81 74.48 73.11 71.82 70.84 70.30 70.10 70.02 69.89 69.17 68.36 68.48 68.25 67.68 67.15 67.04 67.69 68.27 68.52 69.08 69.57 70.20 71.75
48.55 46.39 40.56 38.22 42.29 49.02 58.03 61.81 61.37 59.33 57.77 59.79 63.68 62.81 63.83 70.06 69.62 69.86 69.96 69.04 70.26 70.56 70.81 71.33 73.26 74.33 75.11 73.88 72.56 71.25 70.50 69.93 69.65 69.79 69.09 68.74 67.91 68.12 67.65 66.88 66.43 67.02 67.26 67.47 67.71 68.08 70.21 72.54 72.94
46.99 43.24 39.77 38.83 42.42 47.56 58.18 60.00 59.56 58.23 57.24 57.77 63.09 60.21 64.40 67.91 69.88 70.41 69.32 69.26 70.39 71.00 70.72 69.70 70.55 72.99 74.61 74.01 72.29 71.09 70.29 69.80 69.53 69.77 68.98 68.55 68.01 67.61 67.27 66.56 66.61 66.83 67.31 68.21 69.00 69.39 71.20 72.17 71.65
47.73 43.22 37.81 38.45 41.01 46.61 58.89 59.79 59.89 58.76 58.09 62.33 62.97 58.78 60.23 67.31 69.74 69.50 69.12 68.55 68.79 69.93 69.44 67.62 69.06 72.03 71.78 71.48 71.99 70.87 70.04 69.72 69.31 69.26 69.06 68.68 67.90 67.66 66.77 66.35 67.74 66.85 67.52 69.30 70.62 70.43 70.70 71.23 70.74
46.21 41.43 38.13 39.60 41.75 45.31 57.87 56.62 60.59 63.00 59.25 60.52 63.93 62.44 65.84 68.79 69.05 67.96 67.67 67.86 68.04 68.70 67.48 67.50 68.27 71.23 69.98 69.74 69.89 70.47 69.94 69.72 69.34 68.62 69.21 69.00 63.50 62.84 62.71 66.56 67.46 67.18 67.91 69.55 69.03 69.54 71.28 70.64 69.76
43.22 38.60 40.80 44.27 44.93 45.79 56.23 57.71 60.16 59.92 58.48 59.95 63.38 65.57 67.78 67.82 67.35 66.25 65.85 65.98 66.49 67.10 67.59 66.35 68.65 70.83 68.90 70.60 67.43 66.14 66.20 65.33 64.63 65.40 65.61 64.26 62.48 62.39 62.82 65.47 67.17 67.63 68.22 67.45 66.60 70.96 70.57 67.08 63.93
41.24 41.26 42.90 45.69 45.52 48.30 56.88 57.01 60.24 59.62 56.50 58.31 60.58 62.84 65.79 66.48 66.41 66.42 66.46 66.59 66.04 67.28 67.28 66.41 68.61 69.10 68.04 67.69 65.93 64.90 64.69 64.01 62.78 63.35 64.32 63.00 63.29 61.88 61.02 59.99 60.70 60.37 64.59 60.42 59.31 56.92 57.75 59.84 61.54
44.21 45.02 44.63 46.77 45.36 48.40 55.50 58.59 59.05 59.00 57.75 64.25 64.01 64.81 63.92 65.45 66.31 66.34 66.19 67.05 66.68 66.49 66.23 65.88 68.36 68.50 67.39 66.29 65.42 64.42 63.83 63.54 61.87 61.37 61.48 62.08 59.70 59.99 59.44 58.98 59.31 59.59 61.10 58.94 55.42 54.79 55.19 58.22 60.39
40.79 43.58 44.77 44.80 43.53 43.63 56.36 55.00 55.88 56.73 63.10 64.88 65.58 65.72 64.48 63.73 65.06 66.72 67.14 67.75 66.82 65.85 65.91 65.17 67.07 68.36 67.77 65.82 64.85 63.75 63.44 63.96 63.58 62.61 60.94 61.15 59.70 58.92 58.81 58.14 57.24 57.94 60.52 57.30 55.58 55.07 54.79 57.48 59.27
45.34 44.22 44.40 43.02 44.31 42.37 48.64 52.46 54.59 58.41 63.68 63.72 64.14 64.05 64.56 64.87 64.22 64.07 63.36 66.36 66.27 66.51 65.93 65.45 66.33 68.47 66.38 65.01 64.24 63.50 63.54 64.11 62.93 60.95 61.87 61.43 60.07 58.87 58.22 59.21 57.89 57.28 58.80 58.70 55.74 56.33 53.84 54.62 58.41
45.75 42.64 44.06 44.11 42.86 43.82 52.18 51.70 51.95 58.82 63.27 62.06 62.54 62.41 61.30 63.42 64.01 63.73 62.47 63.41 66.80 66.79 65.89 65.08 65.28 66.21 65.55 65.03 64.39 63.72 64.01 63.68 61.02 61.28 61.75 61.37 60.06 58.39 59.72 58.60 57.09 57.03 57.42 57.85 56.57 55.93 54.42 54.02 54.50
42.15 40.55 38.17 42.33 44.40 46.93 53.64 46.80 54.81 58.92 61.53 60.46 60.09 59.14 60.02 60.78 61.80 62.61 63.38 63.71 66.62 65.32 64.83 65.37 66.87 66.33 65.09 64.28 63.79 63.79 62.80 61.54 60.82 60.81 61.39 61.56 60.42 59.47 59.30 56.33 54.89 56.37 57.16 58.13 56.73 55.53 55.85 53.95 53.35
40.15 36.70 37.02 41.54 45.94 48.12 50.48 47.47 54.54 59.81 59.83 59.06 59.25 59.85 60.30 60.49 60.41 62.48 64.55 64.71 63.66 65.38 66.05 65.80 66.49 65.29 64.37 63.97 63.45 62.65 61.96 61.38 60.39 61.52 61.29 60.88 60.56 60.65 56.23 55.52 55.96 57.33 57.32 57.66 56.90 54.51 55.23 54.11 53.47
38.06 37.62 38.02 39.44 48.49 52.46 49.94 48.51 52.79 58.44 59.11 59.35 59.27 59.84 60.19 59.43 62.42 65.47 65.11 65.82 65.74 65.93 67.02 67.07 65.80 65.23 64.28 63.49 62.43 61.97 62.02 61.83 62.19 62.86 63.62 61.85 60.00 58.98 55.83 56.27 56.97 57.53 57.83 55.19 54.80 53.18 52.96 53.41 52.89
41.95 40.12 40.21 42.06 50.50 50.05 48.24 49.26 50.10 52.44 56.01 56.39 56.94 57.44 57.19 58.43 62.78 65.68 65.43 66.29 66.16 65.74 66.34 66.47 65.47 63.84 64.68 62.69 60.93 60.10 60.20 60.78 60.60 60.17 60.43 59.25 58.00 57.94 56.92 57.11 57.19 57.50 57.34 54.17 53.65 53.59 51.87 51.54 51.63
43.88 41.28 40.59 46.93 51.25 50.01 48.39 47.61 50.50 50.90 52.13 55.43 56.39 57.03 57.71 57.64 59.81 64.33 65.79 65.61 65.24 65.39 65.79 66.19 65.29 63.79 63.39 63.09 62.09 61.83 61.03 61.49 61.88 59.63 58.33 57.83 57.71 57.23 57.40 58.83 57.74 53.47 51.37 52.80 53.16 52.52 51.52 52.51 50.60
42.76 41.65 41.98 45.91 49.86 50.39 48.19 45.46 48.07 51.72 53.56 55.84 57.64 59.04 59.45 58.54 58.90 61.34 65.16 64.70 64.94 64.79 65.24 65.57 64.78 64.58 63.81 63.09 62.30 61.10 61.11 60.63 59.39 58.68 57.91 57.42 58.45 58.42 58.30 58.40 57.38 52.56 51.20 50.21 52.40 52.06 51.23 49.86 49.54
40.89 46.72 46.43 47.91 43.55 39.96 45.86 36.72 42.48 48.81 49.91 53.50 54.12 57.91 60.50 59.62 58.24 65.12 64.21 64.22 64.43 64.62 65.93 66.24 65.57 64.76 63.40 62.83 61.47 60.85 60.08 59.65 60.04 58.88 58.30 57.91 58.50 58.52 59.49 58.21 57.56 53.59 52.17 52.52 52.27 53.71 51.36 49.13 48.60
45.29 47.91 45.82 45.17 40.70 38.61 40.98 38.95 40.46 47.48 46.85 49.93 51.11 56.92 61.44 63.70 64.48 64.79 64.26 64.61 64.83 66.14 65.33 65.34 65.39 64.03 62.38 62.39 62.26 61.29 59.51 58.23 57.09 56.85 57.66 57.25 56.77 57.08 58.51 58.61 57.29 53.13 52.40 52.07 51.11 51.04 49.83 50.60 51.37
49.08 45.94 44.40 42.92 39.86 36.57 39.73 40.27 40.30 44.75 47.08 49.88 52.46 55.38 61.07 63.48 64.17 64.72 65.10 65.28 64.74 65.65 64.80 64.48 64.79 64.15 62.94 62.42 61.76 61.00 59.96 58.27 56.67 55.57 55.97 55.97 55.21 55.47 56.61 57.83 55.86 54.75 51.98 51.90 50.88 49.72 50.42 52.69 50.20
46.32 41.78 36.15 35.76 36.00 36.13 42.94 41.70 43.03 46.98 51.07 52.84 53.99 54.51 59.36 63.11 63.30 63.24 64.01 64.45 64.82 65.41 65.48 65.16 64.68 64.81 63.30 62.45 61.98 61.54 60.25 58.85 57.63 56.41 55.79 54.70 54.40 54.00 55.01 55.40 54.84 54.12 52.11 51.93 50.79 50.55 50.64 50.94 51.16
43.62 42.86 36.71 32.50 33.37 35.85 42.94 39.18 43.70 49.79 53.37 53.78 55.42 56.30 59.29 60.45 62.16 63.20 63.20 63.49 64.56 64.85 64.89 64.77 63.61 63.61 64.07 63.65 63.27 62.21 61.05 59.39 58.40 57.57 56.61 55.61 55.77 55.97 55.40 55.67 55.27 54.55 53.67 52.82 51.68 50.77 51.53 51.31 50.33
43.35 39.54 41.70 37.84 36.10 36.74 39.15 43.46 47.72 51.16 51.92 52.88 53.80 56.88 58.08 57.89 58.08 61.53 62.53 63.19 63.56 63.65 63.81 64.26 64.28 64.15 64.71 64.53 64.01 62.25 61.71 60.52 59.58 58.64 57.19 56.93 56.21 57.25 56.85 56.67 55.79 55.08 54.22 53.14 52.70 51.27 50.58 50.67 50.13
44.32 45.42 38.54 36.62 32.27 31.22 36.59 39.73 40.61 46.51 49.03 50.99 51.85 55.60 56.92 58.42 57.85 58.26 61.64 63.07 63.68 63.94 64.17 63.59 63.57 63.48 64.32 63.90 63.09 63.12 62.12 61.43 60.75 59.44 58.20 57.44 57.59 57.33 57.71 57.23 56.13 55.28 56.25 55.60 52.55 52.35 51.16 52.12 51.35
43.00 40.17 39.28 38.57 36.66 32.54 31.96 37.62 44.97 47.36 49.04 49.32 51.19 54.06 55.83 57.29 58.41 59.35 60.09 62.44 63.97 64.01 63.29 63.40 62.90 63.10 63.39 64.05 63.45 62.95 62.23 61.74 61.36 60.54 60.21 58.96 58.68 61.17 60.44 59.22 58.47 57.37 56.53 55.82 52.99 51.80 50.81 52.03 50.60
44.61 41.71 39.16 35.54 34.55 35.99 35.48 37.32 46.64 47.01 48.71 49.65 51.70 53.46 53.25 56.86 57.37 59.37 59.54 61.04 63.06 63.29 63.35 63.63 64.35 64.25 64.68 64.43 63.97 63.47 62.64 61.84 61.77 61.57 62.84 62.40 61.98 61.45 60.66 59.16 58.23 57.79 57.59 55.26 54.37 54.06 53.38 53.01 52.06
MSLP
1010.45 1010.46 1010.68 1010.96 1012.07 1012.10 1011.69 1010.74 1009.36 1008.63 1008.27 1007.95 1007.89 1008.59 1009.58 1010.49 1011.17 1012.53 1012.21 1012.58 1012.73 1013.56 1013.91 1014.27 1014.46 1014.69 1015.06 1015.17 1015.19 1015.24 1015.26 1015.37 1015.47 1015.42 1015.43 1015.44 1015.49 1015.48 1015.49 1015.34 1015.27 1015.25 1015.26 1015.39 1015.40 1015.36 1015.11 1015.18 1015.03
1010.34 1010.45 1010.63 1011.24 1012.04 1012.45 1011.86 1010.78 1009.75 1008.92 1008.38 1008.20 1008.03 1008.54 1009.27 1010.76 1011.32 1012.04 1012.51 1012.90 1012.91 1013.52 1014.09 1014.44 1014.60 1014.94 1015.24 1015.31 1015.41 1015.54 1015.63 1015.70 1015.75 1015.74 1015.68 1015.63 1015.54 1015.47 1015.61 1015.50 1015.48 1015.49 1015.48 1015.56 1015.49 1015.44 1015.31 1015.23 1015.12
1010.20 1010.17 1010.96 1011.71 1012.13 1012.14 1011.61 1010.86 1010.22 1009.26 1008.94 1008.65 1008.27 1008.60 1009.33 1010.69 1011.63 1012.12 1012.37 1012.72 1013.12 1013.76 1014.10 1014.52 1014.85 1015.11 1015.26 1015.34 1015.50 1015.74 1015.91 1016.01 1015.91 1015.91 1016.01 1015.90 1015.89 1015.82 1015.77 1015.75 1015.74 1015.76 1015.75 1015.76 1015.67 1015.53 1015.51 1015.36 1015.23
1010.44 1010.76 1011.61 1011.76 1011.78 1011.06 1010.22 1009.99 1010.01 1009.75 1009.10 1008.90 1008.75 1009.33 1010.05 1010.42 1010.96 1011.79 1012.78 1013.16 1013.66 1014.17 1014.36 1014.41 1014.92 1015.23 1015.39 1015.52 1015.78 1015.94 1016.11 1016.28 1016.32 1016.35 1016.42 1016.49 1016.36 1016.23 1016.13 1016.02 1016.01 1016.00 1015.99 1015.99 1015.85 1015.87 1015.68 1015.54 1015.36
1010.66 1011.44 1012.19 1012.19 1011.36 1010.32 1009.57 1009.29 1009.68 1009.88 1009.65 1009.31 1009.37 1009.94 1010.46 1011.00 1011.49 1012.09 1012.57 1013.18 1013.82 1014.39 1014.61 1014.86 1015.11 1015.27 1015.46 1015.74 1016.00 1016.31 1016.49 1016.61 1016.68 1016.73 1016.83 1016.72 1016.64 1016.58 1016.50 1016.38 1016.36 1016.29 1016.23 1016.17 1016.17 1016.06 1015.96 1015.65 1015.59
1011.26 1012.02 1012.70 1012.37 1010.93 1009.73 1009.41 1009.34 1009.79 1009.84 1009.60 1009.36 1009.49 1010.25 1011.45 1011.62 1011.59 1012.45 1012.57 1013.20 1013.56 1014.12 1014.65 1014.87 1014.93 1015.16 1015.46 1015.94 1016.27 1016.57 1016.82 1016.88 1016.88 1016.99 1017.03 1017.01 1016.96 1016.95 1016.91 1016.82 1016.76 1016.66 1016.59 1016.53 1016.45 1016.23 1015.98 1015.66 1015.95
1011.17 1012.05 1012.23 1011.89 1010.90 1009.57 1009.16 1009.24 1009.35 1009.54 1009.57 1009.48 1009.42 1010.52 1011.66 1011.97 1012.18 1012.35 1013.25 1013.81 1014.11 1014.23 1014.69 1015.05 1015.11 1015.37 1015.51 1015.75 1016.14 1016.52 1016.90 1017.09 1017.21 1017.22 1017.18 1017.15 1017.16 1017.26 1017.21 1017.05 1016.90 1016.87 1016.88 1016.90 1016.66 1016.54 1016.44 1016.19 1016.28
1010.73 1011.70 1011.88 1011.29 1010.55 1009.74 1009.20 1009.38 1009.66 1010.08 1010.04 1009.65 1009.58 1010.49 1011.67 1011.46 1012.30 1012.96 1013.67 1014.30 1014.54 1014.73 1015.20 1015.56 1015.72 1015.60 1015.91 1016.12 1016.22 1016.41 1016.73 1017.13 1017.22 1017.18 1017.19 1017.32 1017.45 1017.38 1017.44 1017.42 1017.27 1017.06 1017.10 1016.99 1016.80 1016.52 1016.52 1016.80 1016.85
1010.20 1011.23 1011.36 1010.39 1010.10 1009.62 1009.44 1009.80 1009.99 1010.05 1010.22 1010.24 1010.84 1010.87 1010.54 1011.92 1012.56 1013.19 1014.06 1014.79 1015.00 1015.37 1015.52 1015.65 1015.89 1015.95 1016.13 1016.53 1016.69 1016.67 1016.65 1016.83 1017.09 1017.28 1017.37 1017.49 1017.63 1017.72 1017.78 1017.59 1017.60 1017.44 1017.51 1017.30 1017.18 1017.00 1016.98 1017.15 1017.33
1010.03 1010.79 1010.03 1008.89 1008.84 1008.94 1009.35 1010.02 1010.01 1009.91 1010.36 1011.36 1010.93 1010.89 1010.90 1011.89 1012.68 1013.41 1014.25 1014.49 1014.80 1015.04 1015.50 1015.90 1015.99 1016.05 1016.58 1016.64 1016.90 1016.97 1016.88 1016.93 1017.40 1017.65 1017.59 1017.83 1017.94 1017.90 1017.89 1017.80 1017.86 1017.74 1017.83 1017.88 1017.81 1017.56 1017.60 1017.69 1017.90
1009.51 1009.63 1008.92 1007.99 1007.90 1007.98 1008.94 1010.20 1010.06 1009.89 1011.05 1010.51 1010.50 1010.42 1011.27 1011.59 1011.95 1012.76 1013.26 1013.85 1013.98 1014.96 1015.52 1015.92 1016.11 1016.21 1016.48 1016.63 1016.99 1017.44 1017.58 1017.69 1017.68 1017.61 1017.60 1017.96 1018.15 1018.04 1018.23 1018.25 1018.29 1018.33 1018.11 1018.52 1018.49 1018.46 1018.40 1018.38 1018.38
1009.20 1008.26 1008.15 1007.29 1007.04 1008.06 1009.03 1009.40 1009.75 1010.48 1010.34 1010.01 1009.96 1009.54 1010.29 1011.18 1011.37 1011.18 1012.49 1013.58 1014.29 1014.53 1015.38 1015.76 1016.10 1016.47 1016.69 1016.79 1017.03 1017.39 1017.61 1017.96 1018.08 1018.18 1018.02 1018.17 1018.32 1018.28 1018.44 1018.54 1018.52 1018.41 1018.60 1018.81 1019.17 1019.09 1018.96 1018.87 1018.84
1008.91 1008.08 1007.48 1006.86 1007.15 1007.89 1008.92 1009.33 1010.07 1010.42 1010.73 1010.58 1010.30 1009.94 1010.24 1010.64 1010.82 1011.21 1011.93 1012.88 1014.12 1014.62 1014.96 1015.36 1015.84 1016.22 1016.51 1016.81 1016.93 1017.23 1017.46 1017.69 1017.86 1018.09 1018.15 1018.23 1018.37 1018.35 1018.46 1018.57 1018.50 1018.52 1018.64 1018.86 1019.39 1019.40 1019.32 1019.25 1019.23
1008.13 1007.66 1007.07 1006.99 1006.89 1007.39 1009.09 1010.14 1010.00 1011.08 1010.89 1010.88 1010.81 1010.52 1010.71 1010.37 1010.79 1011.98 1012.51 1012.87 1013.35 1014.12 1014.75 1014.98 1015.36 1015.48 1016.02 1016.53 1016.70 1016.84 1017.40 1017.56 1017.89 1018.24 1017.99 1018.09 1018.40 1018.45 1018.45 1018.44 1018.68 1018.74 1018.80 1018.99 1019.26 1019.39 1019.57 1019.71 1019.57
1007.79 1007.73 1007.23 1006.78 1007.07 1007.88 1008.08 1010.02 1010.94 1011.02 1011.30 1011.33 1011.25 1011.02 1010.97 1011.58 1011.57 1011.74 1012.34 1012.67 1013.22 1013.59 1014.22 1014.57 1015.01 1015.31 1015.83 1016.34 1016.51 1016.87 1017.33 1017.55 1018.06 1018.15 1018.03 1017.89 1018.13 1018.43 1018.46 1018.58 1018.89 1018.96 1019.03 1019.12 1019.43 1019.49 1019.76 1019.97 1019.94
1008.62 1008.49 1008.43 1007.45 1007.60 1008.04 1008.57 1011.36 1011.29 1011.53 1011.54 1011.87 1011.54 1011.55 1011.63 1011.26 1012.24 1012.74 1012.34 1012.62 1012.98 1013.31 1013.73 1014.56 1014.89 1015.18 1015.46 1016.09 1016.43 1016.74 1016.91 1017.60 1017.90 1018.00 1017.93 1017.87 1018.01 1018.17 1018.33 1018.67 1018.92 1019.02 1019.03 1019.15 1019.66 1019.81 1019.91 1020.19 1020.19
1009.59 1009.43 1009.05 1008.36 1007.94 1008.29 1009.43 1011.56 1011.79 1012.30 1012.39 1012.10 1012.52 1012.61 1012.12 1012.11 1013.13 1012.72 1012.19 1012.58 1013.13 1012.90 1013.73 1014.25 1014.63 1015.12 1015.46 1016.04 1016.55 1016.85 1017.09 1017.58 1017.75 1017.69 1018.04 1017.97 1017.97 1018.13 1018.56 1018.87 1018.89 1018.87 1018.96 1018.93 1019.63 1020.03 1020.06 1020.17 1020.36
1010.02 1009.70 1009.22 1008.96 1008.74 1008.91 1010.47 1011.82 1012.46 1012.90 1012.83 1012.68 1012.92 1012.81 1012.29 1012.83 1013.21 1013.11 1012.31 1012.68 1013.24 1013.31 1013.45 1014.20 1014.70 1015.03 1015.40 1016.48 1017.10 1017.38 1017.72 1017.81 1017.74 1017.79 1017.73 1017.85 1018.04 1018.29 1018.67 1018.86 1018.85 1018.87 1018.82 1019.47 1019.59 1019.80 1019.96 1020.08 1020.05
1009.41 1009.65 1009.47 1008.84 1009.19 1009.92 1011.25 1012.40 1013.07 1013.14 1013.15 1013.15 1013.24 1013.13 1013.06 1012.77 1012.21 1012.49 1012.70 1012.69 1013.39 1014.14 1014.31 1014.64 1014.81 1015.55 1015.91 1016.84 1017.44 1018.09 1018.32 1017.97 1018.10 1017.88 1017.85 1017.91 1018.17 1018.44 1018.53 1018.75 1018.82 1018.89 1019.12 1019.52 1019.46 1019.75 1020.07 1020.15 1020.17
1008.62 1008.74 1008.78 1009.07 1009.05 1010.12 1011.91 1013.00 1013.35 1013.46 1013.54 1013.11 1013.22 1013.07 1012.87 1012.96 1012.56 1012.67 1012.42 1012.98 1013.37 1014.13 1014.70 1015.01 1015.26 1015.74 1016.18 1016.51 1016.90 1017.47 1017.93 1018.20 1018.37 1018.10 1018.08 1018.14 1018.38 1018.53 1018.64 1018.73 1019.06 1019.39 1019.76 1019.88 1019.86 1019.87 1020.30 1020.31 1020.12
1007.97 1008.31 1008.50 1008.79 1009.65 1010.52 1011.67 1012.94 1013.89 1014.35 1013.80 1013.47 1013.43 1013.19 1012.88 1012.73 1012.93 1013.07 1012.97 1013.28 1013.38 1014.30 1014.77 1015.29 1015.60 1015.85 1016.08 1016.54 1017.29 1017.59 1018.23 1018.39 1018.36 1018.48 1018.45 1018.42 1018.40 1018.57 1018.72 1018.77 1018.92 1019.38 1019.76 1019.79 1019.73 1019.75 1020.07 1020.36 1020.21
1007.43 1007.32 1007.96 1009.02 1010.32 1011.02 1011.59 1013.12 1012.88 1013.66 1013.67 1013.64 1013.75 1013.42 1013.10 1013.30 1013.54 1013.38 1013.14 1013.43 1013.49 1014.16 1014.51 1014.88 1015.20 1015.78 1016.25 1016.48 1017.10 1017.49 1017.80 1018.23 1018.15 1018.16 1018.26 1018.38 1018.49 1018.49 1018.63 1018.73 1018.97 1019.28 1019.58 1019.71 1019.59 1019.47 1019.78 1020.12 1020.35
1006.80 1007.29 1008.15 1009.31 1010.46 1011.09 1011.82 1012.86 1012.64 1012.85 1013.42 1013.43 1013.25 1013.38 1013.27 1013.15 1013.19 1013.27 1013.18 1013.15 1013.59 1014.04 1014.41 1015.01 1015.52 1016.09 1016.41 1016.67 1016.93 1017.22 1017.80 1018.12 1018.03 1018.11 1018.25 1018.36 1018.45 1018.54 1018.54 1018.64 1018.82 1019.13 1019.32 1019.49 1019.48 1019.56 1019.78 1019.83 1019.99
1006.55 1007.65 1008.86 1010.18 1010.95 1012.08 1011.99 1012.27 1012.22 1012.28 1011.91 1012.58 1012.72 1012.86 1013.18 1013.38 1013.51 1013.40 1013.46 1013.55 1013.94 1014.28 1014.73 1015.13 1015.65 1016.02 1016.43 1016.74 1016.99 1017.34 1017.75 1017.95 1018.27 1018.46 1018.55 1018.55 1018.64 1018.75 1018.55 1018.48 1018.71 1018.89 1019.07 1019.24 1019.34 1019.43 1019.55 1019.72 1019.80
1006.99 1008.77 1010.36 1011.78 1012.62 1013.02 1012.47 1012.55 1011.52 1010.84 1011.01 1011.12 1011.28 1012.09 1012.94 1013.28 1013.44 1013.66 1013.57 1013.84 1014.21 1014.48 1014.87 1015.22 1015.65 1016.07 1016.30 1016.64 1016.82 1017.16 1017.36 1017.64 1017.94 1018.09 1018.31 1018.64 1018.83 1018.81 1018.58 1018.64 1018.83 1018.96 1018.91 1018.94 1019.13 1019.28 1019.31 1019.48 1019.66
1007.64 1008.92 1010.77 1012.38 1013.55 1013.32 1012.55 1012.00 1010.64 1010.16 1010.39 1010.56 1010.82 1011.70 1012.52 1013.21 1013.62 1013.78 1014.02 1014.20 1014.40 1014.71 1014.93 1015.44 1015.84 1015.75 1015.65 1015.86 1016.16 1016.50 1016.72 1017.12 1017.29 1017.49 1017.90 1018.21 1018.31 1018.26 1018.33 1018.59 1018.70 1018.74 1018.75 1018.79 1018.97 1019.16 1019.16 1019.28 1019.42
1008.01 1009.27 1010.46 1012.19 1013.71 1013.88 1013.03 1011.71 1010.56 1010.09 1010.31 1010.41 1010.97 1011.73 1012.39 1013.03 1013.56 1013.75 1013.81 1013.78 1013.94 1014.34 1014.68 1014.85 1014.90 1015.14 1015.34 1015.61 1015.92 1015.90 1016.05 1016.47 1016.72 1017.03 1017.31 1017.45 1017.62 1017.72 1017.89 1018.08 1018.41 1018.46 1018.50 1018.49 1018.69 1018.92 1019.10 1019.18 1019.34
1007.70 1009.25 1010.81 1012.46 1014.05 1014.50 1013.61 1012.53 1011.52 1010.69 1010.28 1010.07 1010.58 1011.06 1011.56 1012.23 1012.96 1013.37 1013.01 1013.15 1013.55 1013.70 1013.93 1014.35 1014.73 1015.10 1015.22 1015.36 1015.54 1015.75 1015.78 1015.77 1016.08 1016.45 1016.78 1017.00 1017.12 1017.34 1017.47 1017.62 1017.86 1018.09 1018.01 1017.95 1018.23 1018.53 1018.77 1018.92 1019.09
1008.70 1009.71 1011.38 1012.86 1014.01 1014.51 1014.21 1012.83 1010.97 1010.65 1010.13 1010.14 1010.07 1010.48 1010.97 1011.50 1012.02 1012.40 1012.54 1012.42 1012.78 1013.18 1013.79 1014.20 1015.01 1015.40 1015.51 1015.54 1015.67 1015.59 1015.60 1015.84 1015.90 1015.88 1016.07 1016.37 1016.68 1016.83 1016.98 1017.09 1017.22 1017.40 1017.58 1017.72 1017.97 1018.13 1018.34 1018.56 1018.69
1008.74 1009.98 1011.21 1013.12 1014.30 1014.50 1013.94 1012.24 1010.45 1010.26 1010.26 1010.29 1009.97 1009.98 1010.32 1010.76 1011.16 1011.66 1012.21 1012.27 1012.68 1013.22 1013.64 1013.95 1014.41 1014.75 1014.89 1014.95 1015.07 1015.37 1015.73 1015.66 1015.96 1015.75 1015.72 1015.90 1016.11 1016.24 1016.35 1016.57 1016.80 1017.00 1017.14 1017.25 1017.52 1017.68 1017.76 1018.01 1018.13
Wind_Speed
3 3 2 3 4 4 1 2 3 4 3 4 5 7 7 3 1 3 1 7 15 11 9 11 14 14 13 12 12 13 12 12 11 12 12 12 11 11 10 10 10 11 12 12 12 12 12 12 12
3 2 3 2 5 3 3 5 1 2 4 4 8 7 4 3 4 9 7 11 14 11 7 7 15 14 13 12 14 12 11 11 11 12 12 11 11 11 9 9 10 11 11 11 11 12 12 12 11
2 0 4 5 3 3 4 3 4 4 4 3 4 3 4 6 7 6 9 15 13 10 8 9 15 14 14 12 13 12 11 11 12 11 10 11 10 10 9 9 10 10 11 12 11 11 12 12 11
1 4 5 4 4 6 6 12 5 3 2 4 3 7 5 2 9 9 15 14 13 9 7 14 15 14 13 14 12 11 11 11 10 10 9 9 9 9 9 9 9 11 12 13 13 14 12 10 12
4 3 5 4 6 3 5 16 14 2 2 4 3 4 5 4 15 18 17 14 13 8 6 9 15 14 13 12 11 10 10 10 9 8 8 8 8 8 8 8 9 11 13 14 14 13 11 9 12
4 4 5 3 6 4 3 8 10 5 1 2 4 5 3 10 18 14 15 13 12 12 7 8 16 15 13 11 10 9 9 9 8 8 6 7 7 8 7 8 9 11 11 12 11 11 11 12 16
6 4 3 2 5 3 4 1 2 4 4 3 2 5 4 10 9 14 11 9 11 9 8 6 7 11 15 14 12 10 9 8 7 6 6 6 6 6 6 7 8 9 11 12 12 9 14 17 18
6 5 1 3 3 4 6 3 5 5 2 5 1 6 5 10 13 11 10 7 6 6 4 4 4 4 5 5 12 11 10 8 7 7 6 5 5 6 6 6 7 10 12 13 14 10 15 17 17
4 5 2 4 5 3 1 4 1 2 2 3 6 5 5 15 15 11 11 5 5 4 4 4 4 4 5 4 5 9 11 10 8 7 6 3 2 3 6 4 7 10 12 14 16 13 17 18 16
5 4 7 6 5 5 7 4 6 4 6 3 3 9 15 17 14 14 11 10 10 10 8 6 5 6 5 4 3 4 4 3 3 2 2 1 1 2 3 5 6 9 10 13 15 17 17 11 5
3 5 3 5 3 6 11 4 3 7 1 7 12 15 15 18 15 14 13 14 14 8 7 6 6 6 6 4 3 1 1 1 1 3 3 1 1 2 2 2 3 4 7 4 6 5 4 6 5
1 8 4 8 1 3 10 7 6 5 2 8 14 19 14 17 17 19 16 13 12 12 9 8 6 5 5 3 3 3 2 1 1 1 2 2 1 2 2 1 2 2 2 3 4 3 4 6 6
4 4 7 3 4 5 9 0 1 2 6 8 12 12 13 11 15 13 13 11 8 9 10 10 9 7 5 4 4 4 3 3 2 2 2 3 2 1 1 1 2 2 1 2 3 2 3 5 5
3 5 7 2 5 0 10 6 4 0 9 10 9 10 10 12 7 6 6 12 13 12 10 10 12 10 7 6 6 4 4 3 3 1 2 4 3 2 2 1 1 2 2 2 1 3 3 3 3
3 5 8 5 3 5 5 8 5 8 6 10 9 3 6 4 4 9 4 10 14 12 11 12 12 8 9 7 5 4 4 4 4 3 4 5 3 3 3 3 3 2 1 4 3 3 4 3 2
4 6 4 6 6 5 10 5 1 7 13 10 9 3 6 7 3 8 7 1 11 11 14 11 10 10 8 6 5 4 5 5 4 4 3 4 5 4 4 4 3 2 2 3 2 1 2 3 3
7 1 2 10 2 4 6 5 6 7 7 8 3 4 9 7 8 3 3 4 4 10 12 11 10 10 9 7 5 5 6 4 4 4 2 3 4 5 5 4 2 3 2 3 1 1 2 2 3
3 1 3 5 5 12 12 4 5 4 7 8 4 7 9 6 3 0 6 1 5 6 9 11 10 10 8 5 5 4 3 3 2 3 2 3 4 5 5 4 4 2 3 3 2 2 2 2 2
1 5 7 4 3 8 5 7 4 3 5 5 7 9 8 9 5 4 4 5 7 3 8 10 12 7 8 3 4 3 3 2 1 2 3 4 5 5 6 4 3 3 3 2 3 3 2 0 1
9 1 3 3 5 5 6 5 4 2 3 5 6 8 11 8 7 3 5 6 9 8 6 6 7 7 4 4 3 3 2 1 1 1 2 4 5 4 4 5 4 4 1 1 1 1 1 0 1
3 6 4 7 3 5 5 2 7 3 4 4 4 4 3 8 8 4 5 6 6 7 8 7 8 8 5 6 4 4 3 1 2 1 1 2 5 3 4 4 4 3 2 3 2 2 3 3 1
3 1 7 10 5 4 3 5 4 5 3 6 4 5 5 4 4 4 5 7 8 7 8 8 9 7 5 7 5 6 4 3 3 4 3 3 4 5 4 4 3 3 2 3 3 3 3 3 3
6 4 4 5 4 5 1 4 6 0 6 6 6 7 6 7 5 6 7 7 6 6 7 5 6 5 4 5 5 4 3 2 1 2 4 4 3 4 4 4 3 4 3 3 3 3 3 2 3
4 5 8 4 4 4 5 5 7 6 8 7 6 7 7 6 6 6 3 4 5 5 6 6 7 6 7 6 5 6 6 4 3 2 3 3 2 3 5 5 5 4 4 4 4 3 4 3 3
8 7 5 5 6 5 2 3 10 3 6 8 16 13 10 8 7 5 6 7 7 9 9 7 7 9 8 8 7 7 7 7 7 6 4 4 3 3 6 5 5 4 4 4 4 4 4 5 4
3 7 7 4 3 4 3 3 7 3 7 6 5 9 12 10 8 9 8 6 8 8 7 6 8 9 11 11 11 8 8 5 5 5 4 4 4 4 3 5 5 6 6 5 5 3 4 4 3
2 1 2 8 4 3 3 6 5 3 6 6 6 8 10 10 9 13 11 9 8 8 9 12 12 10 11 11 9 8 7 7 6 6 5 4 5 4 5 5 5 6 6 6 6 4 4 4 4
4 5 3 4 4 2 5 4 5 5 8 8 5 10 10 8 9 8 10 11 9 9 10 8 6 7 7 7 6 5 6 7 6 5 6 6 5 6 6 6 6 6 7 7 6 4 4 5 3
3 2 7 6 4 6 1 7 7 8 9 8 10 7 10 10 9 9 10 9 10 7 6 5 3 5 6 6 5 6 6 6 6 6 6 6 5 6 7 7 7 8 8 7 6 6 6 6 6
3 4 4 7 2 1 4 7 4 5 7 7 11 12 7 9 9 10 7 7 7 7 6 8 8 7 7 6 6 7 5 5 6 6 6 6 7 6 6 6 6 7 8 7 7 9 7 7 6
Wind_Direction
117 177 162 60 48 57 10 208 259 153 24 348 65 94 112 37 97 190 145 124 126 134 142 140 140 136 134 137 136 118 114 112 112 108 104 100 95 89 87 79 75 73 69 66 63 60 58 52 50
159 178 37 89 81 60 316 310 93 272 138 161 100 124 73 78 84 131 114 138 126 128 122 137 140 139 144 143 126 120 121 120 117 113 110 106 104 98 91 84 82 76 71 67 64 61 59 57 55
229 123 85 96 105 136 131 225 255 288 332 297 101 34 104 114 114 134 129 133 124 128 132 150 143 147 148 146 130 133 130 130 123 118 118 114 105 97 91 89 80 73 66 61 59 62 61 63 62
74 11 33 84 253 240 158 182 218 234 303 357 42 72 58 181 140 136 132 128 126 130 138 144 150 150 150 140 138 137 138 130 123 120 112 102 95 86 86 83 74 68 63 63 64 64 65 63 75
42 50 44 5 280 214 250 179 168 234 323 6 326 80 83 51 107 135 138 139 137 135 138 142 152 152 153 146 145 140 134 126 117 112 110 100 87 85 80 73 66 67 66 64 60 57 53 64 103
45 98 55 271 269 330 21 141 149 203 120 277 85 93 58 130 134 152 142 142 145 145 146 160 160 161 156 151 147 141 135 126 119 113 102 88 80 77 72 64 55 59 60 56 49 48 47 97 108
117 91 206 245 267 297 169 186 263 162 151 221 135 81 116 159 153 142 133 131 143 144 152 163 160 167 156 154 156 151 139 134 121 120 113 95 85 78 73 70 63 51 46 41 39 67 84 93 100
110 91 325 245 331 338 174 90 86 33 314 344 6 136 184 174 141 116 108 117 126 133 140 144 148 145 143 158 160 153 150 140 151 153 140 117 79 65 64 54 50 39 28 22 31 95 116 102 95
125 60 297 244 155 240 103 98 294 157 146 325 38 43 135 131 121 116 119 121 117 150 155 157 147 123 125 129 169 164 160 172 172 163 158 98 59 14 11 16 41 34 19 22 45 90 116 108 102
94 110 236 212 153 175 170 136 187 140 163 28 76 84 112 130 148 148 160 169 171 177 178 168 160 139 150 164 169 183 187 146 141 158 160 115 359 337 355 348 16 23 11 31 52 92 102 91 72
171 194 225 265 235 193 147 180 242 139 285 213 171 133 133 155 167 169 179 187 182 174 171 168 172 162 164 159 159 194 331 78 174 177 167 200 271 309 334 338 13 7 5 39 24 49 62 89 94
272 251 180 271 32 121 162 138 187 128 221 138 152 145 151 169 186 179 176 177 181 167 175 165 163 166 184 159 161 172 179 185 251 277 214 189 215 243 259 343 343 28 331 42 62 18 74 96 95
178 268 198 268 277 147 107 219 105 213 109 122 140 160 163 172 198 183 174 167 157 173 178 176 163 171 179 183 166 175 193 180 214 226 202 168 178 166 138 359 33 45 67 110 108 129 80 113 114
260 272 283 163 288 48 124 55 96 63 149 129 137 177 182 188 186 79 145 176 174 167 190 171 182 177 162 187 188 180 178 167 164 169 187 156 154 152 98 82 73 64 56 64 123 119 119 108 139
292 11 341 358 9 35 122 28 341 158 141 140 154 171 277 318 309 105 93 186 183 176 180 180 178 163 170 186 183 169 180 152 153 167 167 138 129 111 122 127 112 91 49 105 63 53 110 99 58
38 49 34 296 33 336 92 288 305 161 146 172 175 183 309 278 84 4 81 205 181 164 171 182 179 176 159 170 162 161 150 148 150 168 160 138 122 113 99 90 78 61 56 77 76 60 56 130 147
14 142 281 321 17 137 66 181 202 135 166 165 183 265 262 315 69 39 46 16 210 152 159 168 157 160 139 139 141 132 131 143 166 144 129 116 119 100 98 92 89 99 65 82 140 96 160 151 165
180 28 296 248 355 81 83 101 68 142 174 181 260 273 276 309 102 51 135 24 121 164 145 141 147 141 127 112 91 77 103 129 144 132 137 118 107 100 116 106 97 97 76 35 100 102 61 155 168
168 166 216 267 145 91 102 114 88 56 124 187 230 250 274 265 251 156 184 145 137 135 122 151 149 132 131 134 123 116 185 174 96 102 125 113 126 143 136 115 94 26 90 176 161 138 158 285 138
261 358 137 24 60 89 141 124 93 125 234 223 239 246 234 247 278 321 121 159 166 159 141 149 133 139 150 131 159 117 116 71 58 110 104 127 136 146 138 126 87 68 28 304 65 121 126 264 199
302 174 192 160 80 82 111 98 149 211 241 203 214 252 255 222 260 206 157 165 162 146 146 137 150 171 166 120 100 82 86 31 98 204 151 197 157 163 149 150 125 124 158 229 212 159 159 194 292
92 205 128 131 103 201 98 246 285 151 149 165 174 162 177 220 259 243 165 160 178 157 144 150 168 183 147 141 163 161 170 181 200 185 174 186 209 174 181 173 140 179 200 225 212 171 164 145 198
197 163 114 135 127 98 221 112 258 214 154 193 185 156 184 184 215 204 201 183 182 146 161 149 140 152 145 168 177 167 178 216 187 159 179 186 187 206 207 199 181 188 203 207 198 184 177 176 167
92 77 45 62 90 33 289 124 283 188 180 163 182 168 177 180 191 225 181 144 140 124 130 150 160 176 167 180 198 195 203 204 191 205 210 215 207 226 228 216 215 212 207 207 205 189 179 189 168
72 52 3 10 14 214 311 73 240 216 199 188 171 169 182 185 194 189 184 175 169 171 174 183 179 192 182 190 196 204 205 198 201 191 196 192 227 233 230 218 223 221 217 209 201 198 193 184 177
57 139 146 189 184 267 282 235 264 315 171 221 194 156 170 183 191 189 194 186 172 183 181 170 182 197 192 192 201 200 200 196 200 195 186 205 210 217 219 227 222 222 218 213 204 202 206 190 181
194 61 179 102 22 64 279 302 323 18 187 218 178 163 186 187 196 198 183 182 179 184 192 192 200 203 199 204 208 203 190 196 204 204 194 200 204 223 225 219 222 226 218 211 197 210 213 173 198
112 152 59 17 134 211 301 289 238 260 247 260 230 203 198 192 192 219 184 184 189 197 199 202 207 215 216 211 206 215 208 196 196 188 206 209 219 212 219 217 210 219 218 210 194 200 209 208 202
12 40 53 109 112 150 156 273 218 231 236 240 245 229 205 204 201 207 215 182 191 196 192 202 177 210 228 220 231 223 214 213 207 199 198 202 209 218 214 221 217 210 212 213 198 207 208 213 209
127 88 109 111 231 87 141 267 250 241 215 202 227 223 224 203 206 211 223 170 185 192 180 192 208 211 222 220 200 218 226 211 221 216 209 191 212 205 214 207 213 216 215 207 206 215 208 210 211